#datetime,building,power
2023-11-03T00:00:00,axn,29.75
2023-11-03T00:01:00,axn,29.70
2023-11-03T00:02:00,axn,29.68
2023-11-03T00:03:00,axn,29.80
2023-11-03T00:04:00,axn,29.02
2023-11-03T00:05:00,axn,28.63
2023-11-03T00:06:00,axn,28.99
2023-11-03T00:07:00,axn,28.79
2023-11-03T00:08:00,axn,28.77
2023-11-03T00:09:00,axn,28.47
2023-11-03T00:10:00,axn,28.43
2023-11-03T00:11:00,axn,28.94
2023-11-03T00:12:00,axn,28.91
2023-11-03T00:13:00,axn,28.85
2023-11-03T00:14:00,axn,28.91
2023-11-03T00:15:00,axn,29.09
2023-11-03T00:16:00,axn,29.12
2023-11-03T00:17:00,axn,28.71
2023-11-03T00:18:00,axn,28.78
2023-11-03T00:19:00,axn,28.86
2023-11-03T00:20:00,axn,28.80
2023-11-03T00:21:00,axn,28.52
2023-11-03T00:22:00,axn,28.48
2023-11-03T00:23:00,axn,28.80
2023-11-03T00:24:00,axn,28.28
2023-11-03T00:25:00,axn,28.29
2023-11-03T00:26:00,axn,28.53
2023-11-03T00:27:00,axn,28.21
2023-11-03T00:28:00,axn,27.75
2023-11-03T00:29:00,axn,27.72
2023-11-03T00:30:00,axn,27.63
2023-11-03T00:31:00,axn,27.58
2023-11-03T00:32:00,axn,27.08
2023-11-03T00:33:00,axn,27.78
2023-11-03T00:34:00,axn,27.39
2023-11-03T00:35:00,axn,27.54
2023-11-03T00:36:00,axn,27.41
2023-11-03T00:37:00,axn,27.66
2023-11-03T00:38:00,axn,27.56
2023-11-03T00:39:00,axn,27.42
2023-11-03T00:40:00,axn,27.63
2023-11-03T00:41:00,axn,27.34
2023-11-03T00:42:00,axn,27.42
2023-11-03T00:43:00,axn,27.50
2023-11-03T00:44:00,axn,27.48
2023-11-03T00:45:00,axn,40.71
2023-11-03T00:46:00,axn,27.54
2023-11-03T00:47:00,axn,27.47
2023-11-03T00:48:00,axn,27.14
2023-11-03T00:49:00,axn,27.17
2023-11-03T00:50:00,axn,27.55
2023-11-03T00:51:00,axn,27.67
2023-11-03T00:52:00,axn,28.01
2023-11-03T00:53:00,axn,27.85
2023-11-03T00:54:00,axn,30.41
2023-11-03T00:55:00,axn,30.16
2023-11-03T00:56:00,axn,30.36
2023-11-03T00:57:00,axn,27.54
2023-11-03T00:58:00,axn,27.39
2023-11-03T00:59:00,axn,27.80
2023-11-03T01:00:00,axn,28.42
2023-11-03T01:01:00,axn,28.09
2023-11-03T01:02:00,axn,28.12
2023-11-03T01:03:00,axn,28.50
2023-11-03T01:04:00,axn,27.99
2023-11-03T01:05:00,axn,28.15
2023-11-03T01:06:00,axn,28.37
2023-11-03T01:07:00,axn,27.94
2023-11-03T01:08:00,axn,28.45
2023-11-03T01:09:00,axn,28.16
2023-11-03T01:10:00,axn,28.13
2023-11-03T01:11:00,axn,28.24
2023-11-03T01:12:00,axn,28.23
2023-11-03T01:13:00,axn,28.15
2023-11-03T01:14:00,axn,28.30
2023-11-03T01:15:00,axn,27.79
2023-11-03T01:16:00,axn,27.82
2023-11-03T01:17:00,axn,27.90
2023-11-03T01:18:00,axn,27.92
2023-11-03T01:19:00,axn,27.88
2023-11-03T01:20:00,axn,28.27
2023-11-03T01:21:00,axn,28.12
2023-11-03T01:22:00,axn,27.90
2023-11-03T01:23:00,axn,28.03
2023-11-03T01:24:00,axn,27.86
2023-11-03T01:25:00,axn,27.75
2023-11-03T01:26:00,axn,27.93
2023-11-03T01:27:00,axn,27.88
2023-11-03T01:28:00,axn,27.71
2023-11-03T01:29:00,axn,28.08
2023-11-03T01:30:00,axn,27.88
2023-11-03T01:31:00,axn,28.00
2023-11-03T01:32:00,axn,28.03
2023-11-03T01:33:00,axn,27.84
2023-11-03T01:34:00,axn,28.09
2023-11-03T01:35:00,axn,27.95
2023-11-03T01:36:00,axn,27.95
2023-11-03T01:37:00,axn,27.97
2023-11-03T01:38:00,axn,27.95
2023-11-03T01:39:00,axn,28.13
2023-11-03T01:40:00,axn,27.98
2023-11-03T01:41:00,axn,27.89
2023-11-03T01:42:00,axn,27.76
2023-11-03T01:43:00,axn,27.98
2023-11-03T01:44:00,axn,27.39
2023-11-03T01:45:00,axn,27.20
2023-11-03T01:46:00,axn,27.31
2023-11-03T01:47:00,axn,27.29
2023-11-03T01:48:00,axn,27.45
2023-11-03T01:49:00,axn,27.71
2023-11-03T01:50:00,axn,27.52
2023-11-03T01:51:00,axn,26.88
2023-11-03T01:52:00,axn,26.87
2023-11-03T01:53:00,axn,26.88
2023-11-03T01:54:00,axn,29.96
2023-11-03T01:55:00,axn,26.85
2023-11-03T01:56:00,axn,26.97
2023-11-03T01:57:00,axn,27.11
2023-11-03T01:58:00,axn,27.04
2023-11-03T01:59:00,axn,26.94
2023-11-03T02:00:00,axn,26.90
2023-11-03T02:01:00,axn,27.56
2023-11-03T02:02:00,axn,31.08
2023-11-03T02:03:00,axn,31.27
2023-11-03T02:04:00,axn,31.41
2023-11-03T02:05:00,axn,26.61
2023-11-03T02:06:00,axn,26.68
2023-11-03T02:07:00,axn,31.70
2023-11-03T02:08:00,axn,26.93
2023-11-03T02:09:00,axn,26.73
2023-11-03T02:10:00,axn,26.56
2023-11-03T02:11:00,axn,26.80
2023-11-03T02:12:00,axn,26.72
2023-11-03T02:13:00,axn,27.12
2023-11-03T02:14:00,axn,27.03
2023-11-03T02:15:00,axn,26.54
2023-11-03T02:16:00,axn,26.95
2023-11-03T02:17:00,axn,27.32
2023-11-03T02:18:00,axn,26.92
2023-11-03T02:19:00,axn,27.01
2023-11-03T02:20:00,axn,26.96
2023-11-03T02:21:00,axn,26.94
2023-11-03T02:22:00,axn,26.98
2023-11-03T02:23:00,axn,26.95
2023-11-03T02:24:00,axn,27.30
2023-11-03T02:25:00,axn,27.02
2023-11-03T02:26:00,axn,27.06
2023-11-03T02:27:00,axn,26.93
2023-11-03T02:28:00,axn,26.87
2023-11-03T02:29:00,axn,26.67
2023-11-03T02:30:00,axn,26.68
2023-11-03T02:31:00,axn,27.03
2023-11-03T02:32:00,axn,26.70
2023-11-03T02:33:00,axn,26.63
2023-11-03T02:34:00,axn,26.48
2023-11-03T02:35:00,axn,26.70
2023-11-03T02:36:00,axn,26.49
2023-11-03T02:37:00,axn,26.68
2023-11-03T02:38:00,axn,26.72
2023-11-03T02:39:00,axn,26.74
2023-11-03T02:40:00,axn,26.97
2023-11-03T02:41:00,axn,26.73
2023-11-03T02:42:00,axn,26.71
2023-11-03T02:43:00,axn,26.56
2023-11-03T02:44:00,axn,26.78
2023-11-03T02:45:00,axn,26.81
2023-11-03T02:46:00,axn,27.36
2023-11-03T02:47:00,axn,26.91
2023-11-03T02:48:00,axn,26.71
2023-11-03T02:49:00,axn,26.97
2023-11-03T02:50:00,axn,26.78
2023-11-03T02:51:00,axn,26.60
2023-11-03T02:52:00,axn,26.84
2023-11-03T02:53:00,axn,26.82
2023-11-03T02:54:00,axn,32.48
2023-11-03T02:55:00,axn,32.59
2023-11-03T02:56:00,axn,32.83
2023-11-03T02:57:00,axn,26.88
2023-11-03T02:58:00,axn,27.26
2023-11-03T02:59:00,axn,26.79
2023-11-03T03:00:00,axn,26.77
2023-11-03T03:01:00,axn,26.92
2023-11-03T03:02:00,axn,26.50
2023-11-03T03:03:00,axn,26.31
2023-11-03T03:04:00,axn,26.38
2023-11-03T03:05:00,axn,26.26
2023-11-03T03:06:00,axn,26.49
2023-11-03T03:07:00,axn,26.81
2023-11-03T03:08:00,axn,26.78
2023-11-03T03:09:00,axn,26.70
2023-11-03T03:10:00,axn,26.87
2023-11-03T03:11:00,axn,26.89
2023-11-03T03:12:00,axn,26.37
2023-11-03T03:13:00,axn,26.68
2023-11-03T03:14:00,axn,26.75
2023-11-03T03:15:00,axn,26.90
2023-11-03T03:16:00,axn,26.69
2023-11-03T03:17:00,axn,26.63
2023-11-03T03:18:00,axn,26.66
2023-11-03T03:19:00,axn,26.70
2023-11-03T03:20:00,axn,26.86
2023-11-03T03:21:00,axn,26.84
2023-11-03T03:22:00,axn,26.55
2023-11-03T03:23:00,axn,26.69
2023-11-03T03:24:00,axn,26.52
2023-11-03T03:25:00,axn,26.53
2023-11-03T03:26:00,axn,26.50
2023-11-03T03:27:00,axn,26.49
2023-11-03T03:28:00,axn,26.52
2023-11-03T03:29:00,axn,26.50
2023-11-03T03:30:00,axn,27.22
2023-11-03T03:31:00,axn,26.39
2023-11-03T03:32:00,axn,26.57
2023-11-03T03:33:00,axn,26.33
2023-11-03T03:34:00,axn,26.41
2023-11-03T03:35:00,axn,36.95
2023-11-03T03:36:00,axn,36.84
2023-11-03T03:37:00,axn,36.60
2023-11-03T03:38:00,axn,36.64
2023-11-03T03:39:00,axn,26.58
2023-11-03T03:40:00,axn,26.85
2023-11-03T03:41:00,axn,26.59
2023-11-03T03:42:00,axn,26.66
2023-11-03T03:43:00,axn,26.65
2023-11-03T03:44:00,axn,26.78
2023-11-03T03:45:00,axn,26.93
2023-11-03T03:46:00,axn,26.49
2023-11-03T03:47:00,axn,26.48
2023-11-03T03:48:00,axn,26.60
2023-11-03T03:49:00,axn,26.39
2023-11-03T03:50:00,axn,26.40
2023-11-03T03:51:00,axn,26.37
2023-11-03T03:52:00,axn,26.29
2023-11-03T03:53:00,axn,26.34
2023-11-03T03:54:00,axn,26.30
2023-11-03T03:55:00,axn,26.52
2023-11-03T03:56:00,axn,29.50
2023-11-03T03:57:00,axn,29.59
2023-11-03T03:58:00,axn,29.34
2023-11-03T03:59:00,axn,26.70
2023-11-03T04:00:00,axn,26.50
2023-11-03T04:01:00,axn,26.05
2023-11-03T04:02:00,axn,26.13
2023-11-03T04:03:00,axn,25.81
2023-11-03T04:04:00,axn,26.44
2023-11-03T04:05:00,axn,26.17
2023-11-03T04:06:00,axn,26.12
2023-11-03T04:07:00,axn,26.62
2023-11-03T04:08:00,axn,26.72
2023-11-03T04:09:00,axn,26.70
2023-11-03T04:10:00,axn,26.72
2023-11-03T04:11:00,axn,26.80
2023-11-03T04:12:00,axn,26.25
2023-11-03T04:13:00,axn,26.55
2023-11-03T04:14:00,axn,26.09
2023-11-03T04:15:00,axn,25.96
2023-11-03T04:16:00,axn,26.28
2023-11-03T04:17:00,axn,27.11
2023-11-03T04:18:00,axn,26.65
2023-11-03T04:19:00,axn,26.73
2023-11-03T04:20:00,axn,26.69
2023-11-03T04:21:00,axn,26.61
2023-11-03T04:22:00,axn,29.32
2023-11-03T04:23:00,axn,26.46
2023-11-03T04:24:00,axn,26.55
2023-11-03T04:25:00,axn,27.25
2023-11-03T04:26:00,axn,26.49
2023-11-03T04:27:00,axn,26.93
2023-11-03T04:28:00,axn,27.16
2023-11-03T04:29:00,axn,27.52
2023-11-03T04:30:00,axn,27.07
2023-11-03T04:31:00,axn,26.74
2023-11-03T04:32:00,axn,26.35
2023-11-03T04:33:00,axn,26.04
2023-11-03T04:34:00,axn,26.28
2023-11-03T04:35:00,axn,26.63
2023-11-03T04:36:00,axn,26.73
2023-11-03T04:37:00,axn,26.30
2023-11-03T04:38:00,axn,26.20
2023-11-03T04:39:00,axn,26.59
2023-11-03T04:40:00,axn,26.30
2023-11-03T04:41:00,axn,26.37
2023-11-03T04:42:00,axn,26.27
2023-11-03T04:43:00,axn,26.24
2023-11-03T04:44:00,axn,26.25
2023-11-03T04:45:00,axn,26.16
2023-11-03T04:46:00,axn,26.45
2023-11-03T04:47:00,axn,26.09
2023-11-03T04:48:00,axn,26.54
2023-11-03T04:49:00,axn,26.18
2023-11-03T04:50:00,axn,26.18
2023-11-03T04:51:00,axn,26.09
2023-11-03T04:52:00,axn,26.05
2023-11-03T04:53:00,axn,26.00
2023-11-03T04:54:00,axn,26.39
2023-11-03T04:55:00,axn,25.95
2023-11-03T04:56:00,axn,26.10
2023-11-03T04:57:00,axn,26.61
2023-11-03T04:58:00,axn,26.63
2023-11-03T04:59:00,axn,26.62
2023-11-03T05:00:00,axn,26.53
2023-11-03T05:01:00,axn,27.69
2023-11-03T05:02:00,axn,30.18
2023-11-03T05:03:00,axn,33.10
2023-11-03T05:04:00,axn,33.28
2023-11-03T05:05:00,axn,33.45
2023-11-03T05:06:00,axn,33.22
2023-11-03T05:07:00,axn,31.55
2023-11-03T05:08:00,axn,31.58
2023-11-03T05:09:00,axn,32.59
2023-11-03T05:10:00,axn,32.19
2023-11-03T05:11:00,axn,32.21
2023-11-03T05:12:00,axn,32.02
2023-11-03T05:13:00,axn,32.20
2023-11-03T05:14:00,axn,32.91
2023-11-03T05:15:00,axn,32.70
2023-11-03T05:16:00,axn,32.99
2023-11-03T05:17:00,axn,33.24
2023-11-03T05:18:00,axn,33.24
2023-11-03T05:19:00,axn,31.86
2023-11-03T05:20:00,axn,32.47
2023-11-03T05:21:00,axn,32.96
2023-11-03T05:22:00,axn,32.17
2023-11-03T05:23:00,axn,32.26
2023-11-03T05:24:00,axn,46.38
2023-11-03T05:25:00,axn,46.01
2023-11-03T05:26:00,axn,46.11
2023-11-03T05:27:00,axn,45.89
2023-11-03T05:28:00,axn,46.13
2023-11-03T05:29:00,axn,46.13
2023-11-03T05:30:00,axn,32.36
2023-11-03T05:31:00,axn,32.72
2023-11-03T05:32:00,axn,32.57
2023-11-03T05:33:00,axn,32.49
2023-11-03T05:34:00,axn,32.09
2023-11-03T05:35:00,axn,32.17
2023-11-03T05:36:00,axn,32.31
2023-11-03T05:37:00,axn,32.36
2023-11-03T05:38:00,axn,32.49
2023-11-03T05:39:00,axn,31.87
2023-11-03T05:40:00,axn,31.81
2023-11-03T05:41:00,axn,31.86
2023-11-03T05:42:00,axn,32.01
2023-11-03T05:43:00,axn,32.34
2023-11-03T05:44:00,axn,31.89
2023-11-03T05:45:00,axn,39.73
2023-11-03T05:46:00,axn,40.48
2023-11-03T05:47:00,axn,40.55
2023-11-03T05:48:00,axn,33.26
2023-11-03T05:49:00,axn,32.42
2023-11-03T05:50:00,axn,32.46
2023-11-03T05:51:00,axn,32.54
2023-11-03T05:52:00,axn,32.65
2023-11-03T05:53:00,axn,32.40
2023-11-03T05:54:00,axn,32.57
2023-11-03T05:55:00,axn,43.05
2023-11-03T05:56:00,axn,32.02
2023-11-03T05:57:00,axn,32.62
2023-11-03T05:58:00,axn,32.92
2023-11-03T05:59:00,axn,32.56
2023-11-03T06:00:00,axn,32.59
2023-11-03T06:01:00,axn,32.41
2023-11-03T06:02:00,axn,32.08
2023-11-03T06:03:00,axn,33.72
2023-11-03T06:04:00,axn,33.77
2023-11-03T06:05:00,axn,33.73
2023-11-03T06:06:00,axn,33.83
2023-11-03T06:07:00,axn,34.65
2023-11-03T06:08:00,axn,34.12
2023-11-03T06:09:00,axn,34.24
2023-11-03T06:10:00,axn,34.02
2023-11-03T06:11:00,axn,33.82
2023-11-03T06:12:00,axn,33.40
2023-11-03T06:13:00,axn,33.59
2023-11-03T06:14:00,axn,33.18
2023-11-03T06:15:00,axn,33.37
2023-11-03T06:16:00,axn,33.38
2023-11-03T06:17:00,axn,34.53
2023-11-03T06:18:00,axn,34.43
2023-11-03T06:19:00,axn,32.99
2023-11-03T06:20:00,axn,34.90
2023-11-03T06:21:00,axn,33.01
2023-11-03T06:22:00,axn,32.82
2023-11-03T06:23:00,axn,33.74
2023-11-03T06:24:00,axn,33.86
2023-11-03T06:25:00,axn,32.37
2023-11-03T06:26:00,axn,32.69
2023-11-03T06:27:00,axn,33.54
2023-11-03T06:28:00,axn,35.36
2023-11-03T06:29:00,axn,33.74
2023-11-03T06:30:00,axn,33.84
2023-11-03T06:31:00,axn,33.89
2023-11-03T06:32:00,axn,34.34
2023-11-03T06:33:00,axn,33.99
2023-11-03T06:34:00,axn,34.14
2023-11-03T06:35:00,axn,34.27
2023-11-03T06:36:00,axn,34.13
2023-11-03T06:37:00,axn,33.90
2023-11-03T06:38:00,axn,34.04
2023-11-03T06:39:00,axn,33.86
2023-11-03T06:40:00,axn,34.05
2023-11-03T06:41:00,axn,34.19
2023-11-03T06:42:00,axn,33.93
2023-11-03T06:43:00,axn,33.76
2023-11-03T06:44:00,axn,33.56
2023-11-03T06:45:00,axn,33.86
2023-11-03T06:46:00,axn,33.26
2023-11-03T06:47:00,axn,33.01
2023-11-03T06:48:00,axn,32.80
2023-11-03T06:49:00,axn,33.20
2023-11-03T06:50:00,axn,33.21
2023-11-03T06:51:00,axn,33.11
2023-11-03T06:52:00,axn,33.01
2023-11-03T06:53:00,axn,33.12
2023-11-03T06:54:00,axn,33.09
2023-11-03T06:55:00,axn,33.14
2023-11-03T06:56:00,axn,33.27
2023-11-03T06:57:00,axn,32.40
2023-11-03T06:58:00,axn,32.22
2023-11-03T06:59:00,axn,32.08
2023-11-03T07:00:00,axn,32.27
2023-11-03T07:01:00,axn,32.77
2023-11-03T07:02:00,axn,33.62
2023-11-03T07:03:00,axn,35.89
2023-11-03T07:04:00,axn,34.16
2023-11-03T07:05:00,axn,34.08
2023-11-03T07:06:00,axn,34.12
2023-11-03T07:07:00,axn,34.04
2023-11-03T07:08:00,axn,34.03
2023-11-03T07:09:00,axn,33.90
2023-11-03T07:10:00,axn,37.18
2023-11-03T07:11:00,axn,37.28
2023-11-03T07:12:00,axn,37.44
2023-11-03T07:13:00,axn,37.37
2023-11-03T07:14:00,axn,34.58
2023-11-03T07:15:00,axn,34.66
2023-11-03T07:16:00,axn,34.75
2023-11-03T07:17:00,axn,34.79
2023-11-03T07:18:00,axn,34.80
2023-11-03T07:19:00,axn,35.83
2023-11-03T07:20:00,axn,35.61
2023-11-03T07:21:00,axn,35.35
2023-11-03T07:22:00,axn,35.69
2023-11-03T07:23:00,axn,37.98
2023-11-03T07:24:00,axn,35.56
2023-11-03T07:25:00,axn,35.64
2023-11-03T07:26:00,axn,35.36
2023-11-03T07:27:00,axn,36.01
2023-11-03T07:28:00,axn,35.18
2023-11-03T07:29:00,axn,36.76
2023-11-03T07:30:00,axn,36.75
2023-11-03T07:31:00,axn,37.32
2023-11-03T07:32:00,axn,37.77
2023-11-03T07:33:00,axn,36.84
2023-11-03T07:34:00,axn,37.08
2023-11-03T07:35:00,axn,38.18
2023-11-03T07:36:00,axn,38.01
2023-11-03T07:37:00,axn,38.93
2023-11-03T07:38:00,axn,38.04
2023-11-03T07:39:00,axn,39.12
2023-11-03T07:40:00,axn,40.14
2023-11-03T07:41:00,axn,39.98
2023-11-03T07:42:00,axn,40.11
2023-11-03T07:43:00,axn,39.54
2023-11-03T07:44:00,axn,40.17
2023-11-03T07:45:00,axn,39.85
2023-11-03T07:46:00,axn,45.09
2023-11-03T07:47:00,axn,45.57
2023-11-03T07:48:00,axn,45.77
2023-11-03T07:49:00,axn,40.97
2023-11-03T07:50:00,axn,41.06
2023-11-03T07:51:00,axn,40.92
2023-11-03T07:52:00,axn,40.54
2023-11-03T07:53:00,axn,40.07
2023-11-03T07:54:00,axn,40.65
2023-11-03T07:55:00,axn,44.29
2023-11-03T07:56:00,axn,44.96
2023-11-03T07:57:00,axn,44.46
2023-11-03T07:58:00,axn,44.30
2023-11-03T07:59:00,axn,43.20
2023-11-03T08:00:00,axn,43.37
2023-11-03T08:01:00,axn,45.36
2023-11-03T08:02:00,axn,45.44
2023-11-03T08:03:00,axn,46.82
2023-11-03T08:04:00,axn,46.23
2023-11-03T08:05:00,axn,46.12
2023-11-03T08:06:00,axn,46.21
2023-11-03T08:07:00,axn,45.73
2023-11-03T08:08:00,axn,45.60
2023-11-03T08:09:00,axn,45.28
2023-11-03T08:10:00,axn,55.87
2023-11-03T08:11:00,axn,56.04
2023-11-03T08:12:00,axn,56.40
2023-11-03T08:13:00,axn,57.15
2023-11-03T08:14:00,axn,47.03
2023-11-03T08:15:00,axn,47.28
2023-11-03T08:16:00,axn,47.50
2023-11-03T08:17:00,axn,47.51
2023-11-03T08:18:00,axn,46.81
2023-11-03T08:19:00,axn,47.05
2023-11-03T08:20:00,axn,48.14
2023-11-03T08:21:00,axn,47.52
2023-11-03T08:22:00,axn,47.64
2023-11-03T08:23:00,axn,47.55
2023-11-03T08:24:00,axn,47.74
2023-11-03T08:25:00,axn,47.69
2023-11-03T08:26:00,axn,47.53
2023-11-03T08:27:00,axn,47.97
2023-11-03T08:28:00,axn,48.24
2023-11-03T08:29:00,axn,48.22
2023-11-03T08:30:00,axn,49.08
2023-11-03T08:31:00,axn,48.38
2023-11-03T08:32:00,axn,48.93
2023-11-03T08:33:00,axn,48.14
2023-11-03T08:34:00,axn,47.94
2023-11-03T08:35:00,axn,47.84
2023-11-03T08:36:00,axn,48.31
2023-11-03T08:37:00,axn,49.31
2023-11-03T08:38:00,axn,49.35
2023-11-03T08:39:00,axn,49.30
2023-11-03T08:40:00,axn,49.47
2023-11-03T08:41:00,axn,64.65
2023-11-03T08:42:00,axn,64.34
2023-11-03T08:43:00,axn,63.98
2023-11-03T08:44:00,axn,63.93
2023-11-03T08:45:00,axn,63.79
2023-11-03T08:46:00,axn,48.52
2023-11-03T08:47:00,axn,64.39
2023-11-03T08:48:00,axn,47.79
2023-11-03T08:49:00,axn,48.03
2023-11-03T08:50:00,axn,47.93
2023-11-03T08:51:00,axn,48.23
2023-11-03T08:52:00,axn,47.98
2023-11-03T08:53:00,axn,48.41
2023-11-03T08:54:00,axn,48.49
2023-11-03T08:55:00,axn,48.58
2023-11-03T08:56:00,axn,48.17
2023-11-03T08:57:00,axn,48.01
2023-11-03T08:58:00,axn,47.50
2023-11-03T08:59:00,axn,48.13
2023-11-03T09:00:00,axn,48.50
2023-11-03T09:01:00,axn,48.75
2023-11-03T09:02:00,axn,65.59
2023-11-03T09:03:00,axn,49.15
2023-11-03T09:04:00,axn,48.73
2023-11-03T09:05:00,axn,48.56
2023-11-03T09:06:00,axn,48.64
2023-11-03T09:07:00,axn,48.23
2023-11-03T09:08:00,axn,48.56
2023-11-03T09:09:00,axn,48.98
2023-11-03T09:10:00,axn,48.63
2023-11-03T09:11:00,axn,49.01
2023-11-03T09:12:00,axn,49.13
2023-11-03T09:13:00,axn,49.36
2023-11-03T09:14:00,axn,48.92
2023-11-03T09:15:00,axn,48.64
2023-11-03T09:16:00,axn,49.06
2023-11-03T09:17:00,axn,49.42
2023-11-03T09:18:00,axn,49.96
2023-11-03T09:19:00,axn,49.75
2023-11-03T09:20:00,axn,50.09
2023-11-03T09:21:00,axn,49.36
2023-11-03T09:22:00,axn,49.62
2023-11-03T09:23:00,axn,49.05
2023-11-03T09:24:00,axn,48.60
2023-11-03T09:25:00,axn,48.83
2023-11-03T09:26:00,axn,48.90
2023-11-03T09:27:00,axn,49.43
2023-11-03T09:28:00,axn,49.91
2023-11-03T09:29:00,axn,49.81
2023-11-03T09:30:00,axn,49.78
2023-11-03T09:31:00,axn,49.98
2023-11-03T09:32:00,axn,49.44
2023-11-03T09:33:00,axn,49.20
2023-11-03T09:34:00,axn,49.30
2023-11-03T09:35:00,axn,49.48
2023-11-03T09:36:00,axn,49.09
2023-11-03T09:37:00,axn,49.22
2023-11-03T09:38:00,axn,49.49
2023-11-03T09:39:00,axn,49.76
2023-11-03T09:40:00,axn,50.21
2023-11-03T09:41:00,axn,50.76
2023-11-03T09:42:00,axn,51.26
2023-11-03T09:43:00,axn,50.69
2023-11-03T09:44:00,axn,50.86
2023-11-03T09:45:00,axn,50.94
2023-11-03T09:46:00,axn,49.96
2023-11-03T09:47:00,axn,53.43
2023-11-03T09:48:00,axn,55.77
2023-11-03T09:49:00,axn,53.52
2023-11-03T09:50:00,axn,52.94
2023-11-03T09:51:00,axn,50.15
2023-11-03T09:52:00,axn,49.66
2023-11-03T09:53:00,axn,49.26
2023-11-03T09:54:00,axn,49.47
2023-11-03T09:55:00,axn,50.01
2023-11-03T09:56:00,axn,49.94
2023-11-03T09:57:00,axn,49.84
2023-11-03T09:58:00,axn,49.88
2023-11-03T09:59:00,axn,50.42
2023-11-03T10:00:00,axn,50.47
2023-11-03T10:01:00,axn,50.59
2023-11-03T10:02:00,axn,50.91
2023-11-03T10:03:00,axn,51.10
2023-11-03T10:04:00,axn,51.07
2023-11-03T10:05:00,axn,51.50
2023-11-03T10:06:00,axn,50.60
2023-11-03T10:07:00,axn,50.14
2023-11-03T10:08:00,axn,50.39
2023-11-03T10:09:00,axn,50.57
2023-11-03T10:10:00,axn,64.09
2023-11-03T10:11:00,axn,50.50
2023-11-03T10:12:00,axn,50.34
2023-11-03T10:13:00,axn,50.62
2023-11-03T10:14:00,axn,50.38
2023-11-03T10:15:00,axn,49.69
2023-11-03T10:16:00,axn,50.19
2023-11-03T10:17:00,axn,50.22
2023-11-03T10:18:00,axn,50.18
2023-11-03T10:19:00,axn,50.26
2023-11-03T10:20:00,axn,50.36
2023-11-03T10:21:00,axn,50.41
2023-11-03T10:22:00,axn,50.54
2023-11-03T10:23:00,axn,50.23
2023-11-03T10:24:00,axn,49.79
2023-11-03T10:25:00,axn,49.89
2023-11-03T10:26:00,axn,49.82
2023-11-03T10:27:00,axn,50.20
2023-11-03T10:28:00,axn,50.14
2023-11-03T10:29:00,axn,49.94
2023-11-03T10:30:00,axn,49.50
2023-11-03T10:31:00,axn,49.56
2023-11-03T10:32:00,axn,49.50
2023-11-03T10:33:00,axn,50.61
2023-11-03T10:34:00,axn,50.42
2023-11-03T10:35:00,axn,50.24
2023-11-03T10:36:00,axn,50.11
2023-11-03T10:37:00,axn,50.00
2023-11-03T10:38:00,axn,50.84
2023-11-03T10:39:00,axn,49.97
2023-11-03T10:40:00,axn,50.24
2023-11-03T10:41:00,axn,49.80
2023-11-03T10:42:00,axn,49.46
2023-11-03T10:43:00,axn,49.25
2023-11-03T10:44:00,axn,48.20
2023-11-03T10:45:00,axn,49.86
2023-11-03T10:46:00,axn,49.32
2023-11-03T10:47:00,axn,49.29
2023-11-03T10:48:00,axn,49.20
2023-11-03T10:49:00,axn,49.51
2023-11-03T10:50:00,axn,48.10
2023-11-03T10:51:00,axn,48.27
2023-11-03T10:52:00,axn,48.67
2023-11-03T10:53:00,axn,48.55
2023-11-03T10:54:00,axn,48.87
2023-11-03T10:55:00,axn,48.88
2023-11-03T10:56:00,axn,48.79
2023-11-03T10:57:00,axn,48.89
2023-11-03T10:58:00,axn,48.69
2023-11-03T10:59:00,axn,48.40
2023-11-03T11:00:00,axn,48.57
2023-11-03T11:01:00,axn,48.50
2023-11-03T11:02:00,axn,48.50
2023-11-03T11:03:00,axn,48.65
2023-11-03T11:04:00,axn,48.65
2023-11-03T11:05:00,axn,50.44
2023-11-03T11:06:00,axn,48.42
2023-11-03T11:07:00,axn,48.44
2023-11-03T11:08:00,axn,49.33
2023-11-03T11:09:00,axn,48.95
2023-11-03T11:10:00,axn,48.85
2023-11-03T11:11:00,axn,49.33
2023-11-03T11:12:00,axn,55.09
2023-11-03T11:13:00,axn,64.09
2023-11-03T11:14:00,axn,63.27
2023-11-03T11:15:00,axn,63.66
2023-11-03T11:16:00,axn,63.68
2023-11-03T11:17:00,axn,63.80
2023-11-03T11:18:00,axn,63.18
2023-11-03T11:19:00,axn,52.50
2023-11-03T11:20:00,axn,49.73
2023-11-03T11:21:00,axn,49.58
2023-11-03T11:22:00,axn,49.41
2023-11-03T11:23:00,axn,49.89
2023-11-03T11:24:00,axn,49.97
2023-11-03T11:25:00,axn,50.28
2023-11-03T11:26:00,axn,50.17
2023-11-03T11:27:00,axn,50.69
2023-11-03T11:28:00,axn,49.80
2023-11-03T11:29:00,axn,49.75
2023-11-03T11:30:00,axn,49.65
2023-11-03T11:31:00,axn,49.77
2023-11-03T11:32:00,axn,49.44
2023-11-03T11:33:00,axn,65.07
2023-11-03T11:34:00,axn,50.76
2023-11-03T11:35:00,axn,50.88
2023-11-03T11:36:00,axn,51.00
2023-11-03T11:37:00,axn,67.53
2023-11-03T11:38:00,axn,50.57
2023-11-03T11:39:00,axn,50.08
2023-11-03T11:40:00,axn,50.39
2023-11-03T11:41:00,axn,60.43
2023-11-03T11:42:00,axn,60.45
2023-11-03T11:43:00,axn,59.24
2023-11-03T11:44:00,axn,59.12
2023-11-03T11:45:00,axn,49.48
2023-11-03T11:46:00,axn,49.21
2023-11-03T11:47:00,axn,49.44
2023-11-03T11:48:00,axn,49.38
2023-11-03T11:49:00,axn,49.74
2023-11-03T11:50:00,axn,49.71
2023-11-03T11:51:00,axn,50.24
2023-11-03T11:52:00,axn,50.24
2023-11-03T11:53:00,axn,49.98
2023-11-03T11:54:00,axn,49.83
2023-11-03T11:55:00,axn,49.92
2023-11-03T11:56:00,axn,50.53
2023-11-03T11:57:00,axn,50.03
2023-11-03T11:58:00,axn,50.37
2023-11-03T11:59:00,axn,50.56
2023-11-03T12:00:00,axn,49.88
2023-11-03T12:01:00,axn,50.48
2023-11-03T12:02:00,axn,51.00
2023-11-03T12:03:00,axn,50.58
2023-11-03T12:04:00,axn,50.64
2023-11-03T12:05:00,axn,50.97
2023-11-03T12:06:00,axn,50.80
2023-11-03T12:07:00,axn,49.82
2023-11-03T12:08:00,axn,52.71
2023-11-03T12:09:00,axn,50.07
2023-11-03T12:10:00,axn,49.86
2023-11-03T12:11:00,axn,49.83
2023-11-03T12:12:00,axn,50.12
2023-11-03T12:13:00,axn,49.97
2023-11-03T12:14:00,axn,49.74
2023-11-03T12:15:00,axn,50.10
2023-11-03T12:16:00,axn,49.83
2023-11-03T12:17:00,axn,49.87
2023-11-03T12:18:00,axn,49.49
2023-11-03T12:19:00,axn,49.38
2023-11-03T12:20:00,axn,49.98
2023-11-03T12:21:00,axn,49.40
2023-11-03T12:22:00,axn,49.62
2023-11-03T12:23:00,axn,50.46
2023-11-03T12:24:00,axn,50.05
2023-11-03T12:25:00,axn,50.12
2023-11-03T12:26:00,axn,52.40
2023-11-03T12:27:00,axn,52.37
2023-11-03T12:28:00,axn,52.23
2023-11-03T12:29:00,axn,50.02
2023-11-03T12:30:00,axn,49.78
2023-11-03T12:31:00,axn,49.85
2023-11-03T12:32:00,axn,50.10
2023-11-03T12:33:00,axn,50.74
2023-11-03T12:34:00,axn,49.86
2023-11-03T12:35:00,axn,49.78
2023-11-03T12:36:00,axn,49.36
2023-11-03T12:37:00,axn,49.99
2023-11-03T12:38:00,axn,49.88
2023-11-03T12:39:00,axn,49.82
2023-11-03T12:40:00,axn,49.54
2023-11-03T12:41:00,axn,49.36
2023-11-03T12:42:00,axn,48.60
2023-11-03T12:43:00,axn,54.62
2023-11-03T12:44:00,axn,54.48
2023-11-03T12:45:00,axn,54.53
2023-11-03T12:46:00,axn,49.19
2023-11-03T12:47:00,axn,49.17
2023-11-03T12:48:00,axn,48.53
2023-11-03T12:49:00,axn,48.71
2023-11-03T12:50:00,axn,48.48
2023-11-03T12:51:00,axn,48.38
2023-11-03T12:52:00,axn,48.12
2023-11-03T12:53:00,axn,48.44
2023-11-03T12:54:00,axn,48.11
2023-11-03T12:55:00,axn,48.05
2023-11-03T12:56:00,axn,48.23
2023-11-03T12:57:00,axn,51.10
2023-11-03T12:58:00,axn,47.90
2023-11-03T12:59:00,axn,47.86
2023-11-03T13:00:00,axn,47.76
2023-11-03T13:01:00,axn,47.72
2023-11-03T13:02:00,axn,47.19
2023-11-03T13:03:00,axn,47.18
2023-11-03T13:04:00,axn,47.24
2023-11-03T13:05:00,axn,47.28
2023-11-03T13:06:00,axn,50.02
2023-11-03T13:07:00,axn,47.90
2023-11-03T13:08:00,axn,48.89
2023-11-03T13:09:00,axn,48.74
2023-11-03T13:10:00,axn,48.27
2023-11-03T13:11:00,axn,48.40
2023-11-03T13:12:00,axn,47.86
2023-11-03T13:13:00,axn,48.13
2023-11-03T13:14:00,axn,47.86
2023-11-03T13:15:00,axn,48.41
2023-11-03T13:16:00,axn,48.60
2023-11-03T13:17:00,axn,48.87
2023-11-03T13:18:00,axn,47.99